User: anonymous   Login
Location: Unspecified
(0.0000°N, 0.0000°E)
Time: 18:12:04
(UTC+00:00)
Language:

FALCONSAT-10 - Orbit

View from above orbital plane
View from above orbital plane
View from above satellite
View from above satellite

Ground track
Ground track

The orbit is defined by the following mean orbital elements,

1 58291U          26145.17106230 +.00000000 +00000-0 +16875-3 0 00006
2 58291  97.3806 221.4535 0006777 267.8240  92.2224 15.27436924    02
Epoch (UTC): 25 May 2026 04:06:19
Eccentricity: 0.0006777
inclination: 97.3806°
perigee height: 479 km
apogee height: 488 km
right ascension of ascending node: 221.4535°
argument of perigee: 267.8240°
revolutions per day: 15.27436924
mean anomaly at epoch: 92.2224°

The dashed part of the orbit path shows where the satellite is in the earth's shadow,  

DLR